Hourly Weather Barsanovo

Today, 8 March, Monday

Time Temperature Precipitation Wind Pressure Humidity
00:00 -7°C° 0.1 mm 4 mps 741 mmHg 90%
01:00 -7°C° 0.1 mm 3 mps 742 mmHg 90%
02:00 -8°C° 0 mm 3 mps 742 mmHg 91%
03:00 -8°C° 0 mm 3 mps 743 mmHg 91%
04:00 -9°C° 0 mm 3 mps 743 mmHg 91%
05:00 -10°C° 0 mm 3 mps 744 mmHg 91%
06:00 -11°C° 0.1 mm 4 mps 744 mmHg 89%
07:00 -10°C° 0.1 mm 4 mps 745 mmHg 86%
08:00 -10°C° 0 mm 4 mps 746 mmHg 84%
09:00 -10°C° 0 mm 4 mps 747 mmHg 80%
10:00 -10°C° 0 mm 4 mps 747 mmHg 77%
11:00 -9°C° 0 mm 4 mps 748 mmHg 74%
12:00 -9°C° 0 mm 4 mps 749 mmHg 72%
13:00 -9°C° 0 mm 4 mps 749 mmHg 71%
14:00 -8°C° 0 mm 4 mps 750 mmHg 70%
15:00 -8°C° 0 mm 4 mps 750 mmHg 72%
16:00 -9°C° 0 mm 4 mps 750 mmHg 73%
17:00 -8°C° 0 mm 3 mps 751 mmHg 75%
18:00 -9°C° 0 mm 3 mps 751 mmHg 79%
19:00 -10°C° 0 mm 3 mps 752 mmHg 83%
20:00 -9°C° 0 mm 2 mps 752 mmHg 88%
21:00 -10°C° 0 mm 2 mps 753 mmHg 89%
22:00 -10°C° 0 mm 2 mps 753 mmHg 90%
23:00 -10°C° 0 mm 2 mps 753 mmHg 91%

Tomorrow, 9 March, Tuesday

Time Temperature Precipitation Wind Pressure Humidity
00:00 -12°C° 0 mm 2 mps 754 mmHg 92%
01:00 -12°C° 0 mm 2 mps 754 mmHg 92%
02:00 -13°C° 0 mm 2 mps 754 mmHg 93%
03:00 -13°C° 0 mm 2 mps 755 mmHg 93%
04:00 -13°C° 0 mm 2 mps 755 mmHg 93%
05:00 -14°C° 0 mm 2 mps 755 mmHg 93%
06:00 -13°C° 0 mm 2 mps 755 mmHg 92%
07:00 -13°C° 0 mm 2 mps 756 mmHg 90%
08:00 -13°C° 0 mm 2 mps 756 mmHg 88%
09:00 -10°C° 0 mm 2 mps 756 mmHg 82%
10:00 -9°C° 0 mm 2 mps 756 mmHg 75%
11:00 -7°C° 0 mm 2 mps 757 mmHg 68%
12:00 -6°C° 0 mm 1 mps 757 mmHg 65%
13:00 -4°C° 0 mm 1 mps 757 mmHg 61%
14:00 -3°C° 0 mm 1 mps 757 mmHg 58%
15:00 -3°C° 0 mm 1 mps 756 mmHg 65%
16:00 -4°C° 0 mm 1 mps 756 mmHg 72%
17:00 -4°C° 0 mm 1 mps 756 mmHg 79%
18:00 -4°C° 0.1 mm 1 mps 756 mmHg 82%
19:00 -6°C° 0.1 mm 2 mps 757 mmHg 85%
20:00 -7°C° 0.1 mm 2 mps 757 mmHg 89%
21:00 -6°C° 0.2 mm 2 mps 757 mmHg 89%
22:00 -6°C° 0.2 mm 2 mps 757 mmHg 90%
23:00 -6°C° 0.2 mm 2 mps 757 mmHg 91%

Day after tomorrow, 10 March, Wednesday

Time Temperature Precipitation Wind Pressure Humidity
00:00 -6°C° 0.4 mm 2 mps 757 mmHg 89%
01:00 -6°C° 0.4 mm 2 mps 757 mmHg 88%
02:00 -6°C° 0.4 mm 2 mps 757 mmHg 86%
03:00 -7°C° 0.4 mm 2 mps 757 mmHg 88%
04:00 -7°C° 0.4 mm 2 mps 757 mmHg 90%
05:00 -8°C° 0.4 mm 2 mps 757 mmHg 91%
06:00 -8°C° 0.4 mm 2 mps 758 mmHg 91%
07:00 -10°C° 0.4 mm 3 mps 758 mmHg 91%
08:00 -10°C° 0.4 mm 3 mps 759 mmHg 91%
09:00 -10°C° 0.1 mm 3 mps 759 mmHg 89%
10:00 -9°C° 0.1 mm 3 mps 759 mmHg 87%
11:00 -10°C° 0.1 mm 4 mps 759 mmHg 85%
12:00 -9°C° 0.1 mm 4 mps 760 mmHg 85%
13:00 -9°C° 0.1 mm 4 mps 760 mmHg 84%
14:00 -8°C° 0.1 mm 4 mps 760 mmHg 83%
15:00 -9°C° 0.1 mm 4 mps 760 mmHg 85%
16:00 -9°C° 0.1 mm 4 mps 760 mmHg 87%
17:00 -10°C° 0.1 mm 4 mps 760 mmHg 89%
18:00 -10°C° 0.1 mm 4 mps 760 mmHg 89%
19:00 -11°C° 0.1 mm 4 mps 760 mmHg 89%
20:00 -11°C° 0.1 mm 4 mps 761 mmHg 90%
21:00 -12°C° 0 mm 4 mps 761 mmHg 90%
22:00 -12°C° 0 mm 4 mps 761 mmHg 90%
23:00 -14°C° 0 mm 4 mps 761 mmHg 90%

11 March, Thursday

Time Temperature Precipitation Wind Pressure Humidity
00:00 -14°C° 0 mm 4 mps 761 mmHg 90%
01:00 -13°C° 0 mm 3 mps 761 mmHg 90%
02:00 -13°C° 0 mm 3 mps 761 mmHg 91%
03:00 -14°C° 0 mm 3 mps 761 mmHg 91%
04:00 -14°C° 0 mm 3 mps 761 mmHg 91%
05:00 -14°C° 0 mm 3 mps 761 mmHg 91%
06:00 -14°C° 0 mm 3 mps 761 mmHg 91%
07:00 -14°C° 0 mm 3 mps 761 mmHg 90%
08:00 -13°C° 0 mm 3 mps 761 mmHg 90%
09:00 -12°C° 0 mm 3 mps 761 mmHg 86%
10:00 -9°C° 0 mm 3 mps 761 mmHg 82%
11:00 -7°C° 0 mm 3 mps 760 mmHg 78%
12:00 -7°C° 0 mm 4 mps 760 mmHg 74%
13:00 -5°C° 0 mm 4 mps 760 mmHg 70%
14:00 -4°C° 0 mm 4 mps 759 mmHg 66%
15:00 -4°C° 0 mm 4 mps 759 mmHg 68%
16:00 -4°C° 0 mm 4 mps 758 mmHg 71%
17:00 -5°C° 0 mm 3 mps 758 mmHg 73%
18:00 -7°C° 0 mm 4 mps 758 mmHg 77%
19:00 -7°C° 0 mm 4 mps 758 mmHg 81%
20:00 -8°C° 0 mm 5 mps 758 mmHg 85%
21:00 -10°C° 0 mm 5 mps 757 mmHg 86%
22:00 -10°C° 0 mm 5 mps 757 mmHg 86%
23:00 -10°C° 0 mm 5 mps 756 mmHg 87%

12 March, Friday

Time Temperature Precipitation Wind Pressure Humidity
00:00 -10°C° 0 mm 5 mps 756 mmHg 86%
01:00 -10°C° 0 mm 5 mps 755 mmHg 85%
02:00 -10°C° 0 mm 6 mps 754 mmHg 84%
03:00 -10°C° 0 mm 6 mps 754 mmHg 83%
04:00 -10°C° 0 mm 6 mps 753 mmHg 82%
05:00 -10°C° 0 mm 6 mps 753 mmHg 81%
06:00 -10°C° 0 mm 6 mps 752 mmHg 80%
07:00 -11°C° 0 mm 7 mps 752 mmHg 79%
08:00 -9°C° 0 mm 7 mps 751 mmHg 77%
09:00 -9°C° 0 mm 7 mps 751 mmHg 76%
10:00 -8°C° 0 mm 7 mps 750 mmHg 75%
11:00 -7°C° 0 mm 7 mps 750 mmHg 75%
12:00 -7°C° 0.2 mm 7 mps 749 mmHg 79%
13:00 -7°C° 0.2 mm 7 mps 749 mmHg 83%
14:00 -7°C° 0.2 mm 7 mps 748 mmHg 87%
15:00 -7°C° 0.3 mm 7 mps 748 mmHg 88%
16:00 -7°C° 0.3 mm 7 mps 747 mmHg 90%
17:00 -7°C° 0.3 mm 7 mps 747 mmHg 91%
18:00 -5°C° 0.3 mm 6 mps 746 mmHg 91%
19:00 -5°C° 0.3 mm 6 mps 746 mmHg 92%
20:00 -5°C° 0.3 mm 6 mps 745 mmHg 92%
21:00 -5°C° 0.3 mm 5 mps 745 mmHg 94%
22:00 -4°C° 0.3 mm 4 mps 745 mmHg 95%
23:00 -3°C° 0.3 mm 4 mps 745 mmHg 96%

13 March, Saturday

Time Temperature Precipitation Wind Pressure Humidity
00:00 -3°C° 0.8 mm 4 mps 745 mmHg 96%
01:00 -1°C° 0.8 mm 3 mps 745 mmHg 97%
02:00 0°C° 0.8 mm 3 mps 745 mmHg 97%
03:00 0°C° 0.1 mm 3 mps 746 mmHg 96%
04:00 0°C° 0.1 mm 3 mps 746 mmHg 95%
05:00 -1°C° 0.1 mm 4 mps 746 mmHg 94%
06:00 -1°C° 0 mm 4 mps 747 mmHg 94%
07:00 -1°C° 0 mm 4 mps 747 mmHg 93%
08:00 -1°C° 0 mm 4 mps 747 mmHg 93%
09:00 0°C° 0 mm 4 mps 747 mmHg 90%
10:00 0°C° 0 mm 5 mps 747 mmHg 88%
11:00 +1°C° 0 mm 5 mps 747 mmHg 85%
12:00 +1°C° 0 mm 5 mps 747 mmHg 83%
13:00 +2°C° 0 mm 5 mps 746 mmHg 81%
14:00 +2°C° 0 mm 5 mps 746 mmHg 79%
15:00 +2°C° 0.1 mm 5 mps 746 mmHg 83%
16:00 +2°C° 0.1 mm 5 mps 746 mmHg 86%
17:00 +1°C° 0.1 mm 5 mps 745 mmHg 90%
18:00 +1°C° 0.2 mm 4 mps 746 mmHg 91%
19:00 0°C° 0.2 mm 4 mps 746 mmHg 92%
20:00 0°C° 0.2 mm 3 mps 746 mmHg 93%
21:00 0°C° 0 mm 3 mps 746 mmHg 93%
22:00 0°C° 0 mm 3 mps 746 mmHg 93%
23:00 0°C° 0 mm 3 mps 746 mmHg 94%
Show more